Year,Month,Day,Hour,Minute,Value (Times are PST for temperature in C)
2006,09,27,00,00,14.10
2006,09,27,00,01,14.10
2006,09,27,00,02,14.10
2006,09,27,00,03,14.10
2006,09,27,00,04,14.10
2006,09,27,00,05,14.00
2006,09,27,00,06,14.10
2006,09,27,00,07,14.00
2006,09,27,00,08,14.00
2006,09,27,00,09,14.00
2006,09,27,00,10,14.00
2006,09,27,00,11,14.00
2006,09,27,00,12,14.00
2006,09,27,00,13,14.00
2006,09,27,00,14,14.00
2006,09,27,00,15,14.00
2006,09,27,00,16,14.00
2006,09,27,00,17,14.00
2006,09,27,00,18,14.00
2006,09,27,00,19,13.90
2006,09,27,00,20,13.90
2006,09,27,00,21,13.90
2006,09,27,00,22,13.90
2006,09,27,00,23,13.90
2006,09,27,00,24,13.90
2006,09,27,00,25,13.90
2006,09,27,00,26,13.90
2006,09,27,00,27,13.80
2006,09,27,00,28,13.80
2006,09,27,00,29,13.90
2006,09,27,00,30,13.90
2006,09,27,00,31,13.90
2006,09,27,00,32,13.80
2006,09,27,00,33,13.80
2006,09,27,00,34,13.80
2006,09,27,00,35,13.80
2006,09,27,00,36,13.80
2006,09,27,00,37,13.80
2006,09,27,00,38,13.80
2006,09,27,00,39,13.80
2006,09,27,00,40,13.80
2006,09,27,00,41,13.70
2006,09,27,00,42,13.70
2006,09,27,00,43,13.70
2006,09,27,00,44,13.70
2006,09,27,00,45,13.70
2006,09,27,00,46,13.70
2006,09,27,00,47,13.70
2006,09,27,00,48,13.70
2006,09,27,00,49,13.70
2006,09,27,00,50,13.70
2006,09,27,00,51,13.70
2006,09,27,00,52,13.70
2006,09,27,00,53,13.70
2006,09,27,00,54,13.70
2006,09,27,00,55,13.70
2006,09,27,00,56,13.70
2006,09,27,00,57,13.70
2006,09,27,00,58,13.70
2006,09,27,00,59,13.70
2006,09,27,01,00,13.70
2006,09,27,01,01,13.70
2006,09,27,01,02,13.70
2006,09,27,01,03,13.70
2006,09,27,01,04,13.70
2006,09,27,01,05,13.70
2006,09,27,01,06,13.70
2006,09,27,01,07,13.70
2006,09,27,01,08,13.70
2006,09,27,01,09,13.70
2006,09,27,01,10,13.70
2006,09,27,01,11,13.70
2006,09,27,01,12,13.70
2006,09,27,01,13,13.70
2006,09,27,01,14,13.70
2006,09,27,01,15,13.70
2006,09,27,01,16,13.70
2006,09,27,01,17,13.60
2006,09,27,01,18,13.60
2006,09,27,01,19,13.60
2006,09,27,01,20,13.60
2006,09,27,01,21,13.60
2006,09,27,01,22,13.60
2006,09,27,01,23,13.60
2006,09,27,01,24,13.60
2006,09,27,01,25,13.60
2006,09,27,01,26,13.60
2006,09,27,01,27,13.60
2006,09,27,01,28,13.60
2006,09,27,01,29,13.60
2006,09,27,01,30,13.60
2006,09,27,01,31,13.60
2006,09,27,01,32,13.60
2006,09,27,01,33,13.60
2006,09,27,01,34,13.60
2006,09,27,01,35,13.60
2006,09,27,01,36,13.60
2006,09,27,01,37,13.60
2006,09,27,01,38,13.60
2006,09,27,01,39,13.60
2006,09,27,01,40,13.60
2006,09,27,01,41,13.50
2006,09,27,01,42,13.50
2006,09,27,01,43,13.50
2006,09,27,01,44,13.50
2006,09,27,01,45,13.50
2006,09,27,01,46,13.50
2006,09,27,01,47,13.50
2006,09,27,01,48,13.40
2006,09,27,01,49,13.40
2006,09,27,01,50,13.40
2006,09,27,01,51,13.40
2006,09,27,01,52,13.40
2006,09,27,01,53,13.40
2006,09,27,01,54,13.40
2006,09,27,01,55,13.40
2006,09,27,01,56,13.30
2006,09,27,01,57,13.30
2006,09,27,01,58,13.30
2006,09,27,01,59,13.30
2006,09,27,02,00,13.30
2006,09,27,02,01,13.30
2006,09,27,02,02,13.30
2006,09,27,02,03,13.30
2006,09,27,02,04,13.30
2006,09,27,02,05,13.30
2006,09,27,02,06,13.30
2006,09,27,02,07,13.30
2006,09,27,02,08,13.20
2006,09,27,02,09,13.20
2006,09,27,02,10,13.20
2006,09,27,02,11,13.20
2006,09,27,02,12,13.20
2006,09,27,02,13,13.20
2006,09,27,02,14,13.20
2006,09,27,02,15,13.20
2006,09,27,02,16,13.20
2006,09,27,02,17,13.20
2006,09,27,02,18,13.20
2006,09,27,02,19,13.30
2006,09,27,02,20,13.20
2006,09,27,02,21,13.20
2006,09,27,02,22,13.20
2006,09,27,02,23,13.20
2006,09,27,02,24,13.20
2006,09,27,02,25,13.20
2006,09,27,02,26,13.20
2006,09,27,02,27,13.20
2006,09,27,02,28,13.20
2006,09,27,02,29,13.20
2006,09,27,02,30,13.20
2006,09,27,02,31,13.20
2006,09,27,02,32,13.20
2006,09,27,02,33,13.20
2006,09,27,02,34,13.20
2006,09,27,02,35,13.20
2006,09,27,02,36,13.20
2006,09,27,02,37,13.20
2006,09,27,02,38,13.20
2006,09,27,02,39,13.10
2006,09,27,02,40,13.10
2006,09,27,02,41,13.10
2006,09,27,02,42,13.10
2006,09,27,02,43,13.10
2006,09,27,02,44,13.10
2006,09,27,02,45,13.10
2006,09,27,02,46,13.10
2006,09,27,02,47,13.10
2006,09,27,02,48,13.10
2006,09,27,02,49,13.10
2006,09,27,02,50,13.10
2006,09,27,02,51,13.10
2006,09,27,02,52,13.10
2006,09,27,02,53,13.10
2006,09,27,02,54,13.10
2006,09,27,02,55,13.10
2006,09,27,02,56,13.10
2006,09,27,02,57,13.10
2006,09,27,02,58,13.10
2006,09,27,02,59,13.00
2006,09,27,03,00,13.00
2006,09,27,03,01,13.00
2006,09,27,03,02,13.00
2006,09,27,03,03,13.00
2006,09,27,03,04,13.00
2006,09,27,03,05,13.00
2006,09,27,03,06,13.00
2006,09,27,03,07,13.00
2006,09,27,03,08,13.00
2006,09,27,03,09,13.00
2006,09,27,03,10,13.00
2006,09,27,03,11,12.90
2006,09,27,03,12,12.90
2006,09,27,03,13,12.90
2006,09,27,03,14,12.90
2006,09,27,03,15,12.90
2006,09,27,03,16,12.90
2006,09,27,03,17,12.90
2006,09,27,03,18,12.90
2006,09,27,03,19,12.90
2006,09,27,03,20,12.90
2006,09,27,03,21,12.90
2006,09,27,03,22,12.90
2006,09,27,03,23,12.90
2006,09,27,03,24,12.90
2006,09,27,03,25,12.90
2006,09,27,03,26,13.00
2006,09,27,03,27,13.00
2006,09,27,03,28,13.00
2006,09,27,03,29,13.00
2006,09,27,03,30,13.00
2006,09,27,03,31,13.00
2006,09,27,03,32,13.00
2006,09,27,03,33,13.00
2006,09,27,03,34,13.00
2006,09,27,03,35,12.90
2006,09,27,03,36,12.90
2006,09,27,03,37,12.90
2006,09,27,03,38,12.80
2006,09,27,03,39,12.80
2006,09,27,03,40,12.90
2006,09,27,03,41,13.00
2006,09,27,03,42,13.00
2006,09,27,03,43,13.10
2006,09,27,03,44,13.10
2006,09,27,03,45,13.10
2006,09,27,03,46,13.10
2006,09,27,03,47,13.10
2006,09,27,03,48,13.10
2006,09,27,03,49,13.00
2006,09,27,03,50,13.00
2006,09,27,03,51,13.00
2006,09,27,03,52,13.00
2006,09,27,03,53,13.00
2006,09,27,03,54,12.90
2006,09,27,03,55,12.90
2006,09,27,03,56,12.90
2006,09,27,03,57,12.90
2006,09,27,03,58,12.90
2006,09,27,03,59,12.90
2006,09,27,04,00,12.90
2006,09,27,04,01,12.90
2006,09,27,04,02,12.90
2006,09,27,04,03,12.90
2006,09,27,04,04,12.90
2006,09,27,04,05,12.90
2006,09,27,04,06,12.90
2006,09,27,04,07,12.90
2006,09,27,04,08,12.90
2006,09,27,04,09,12.80
2006,09,27,04,10,12.80
2006,09,27,04,11,12.80
2006,09,27,04,12,12.80
2006,09,27,04,13,12.80
2006,09,27,04,14,12.80
2006,09,27,04,15,12.80
2006,09,27,04,16,12.80
2006,09,27,04,17,12.80
2006,09,27,04,18,12.80
2006,09,27,04,19,12.70
2006,09,27,04,20,12.70
2006,09,27,04,21,12.60
2006,09,27,04,22,12.60
2006,09,27,04,23,12.60
2006,09,27,04,24,12.60
2006,09,27,04,25,12.60
2006,09,27,04,26,12.50
2006,09,27,04,27,12.50
2006,09,27,04,28,12.50
2006,09,27,04,29,12.50
2006,09,27,04,30,12.50
2006,09,27,04,31,12.50
2006,09,27,04,32,12.40
2006,09,27,04,33,12.40
2006,09,27,04,34,12.40
2006,09,27,04,35,12.40
2006,09,27,04,36,12.40
2006,09,27,04,37,12.40
2006,09,27,04,38,12.30
2006,09,27,04,39,12.30
2006,09,27,04,40,12.30
2006,09,27,04,41,12.30
2006,09,27,04,42,12.30
2006,09,27,04,43,12.30
2006,09,27,04,44,12.30
2006,09,27,04,45,12.30
2006,09,27,04,46,12.30
2006,09,27,04,47,12.30
2006,09,27,04,48,12.30
2006,09,27,04,49,12.30
2006,09,27,04,50,12.30
2006,09,27,04,51,12.20
2006,09,27,04,52,12.20
2006,09,27,04,53,12.20
2006,09,27,04,54,12.20
2006,09,27,04,55,12.20
2006,09,27,04,56,12.20
2006,09,27,04,57,12.20
2006,09,27,04,58,12.20
2006,09,27,04,59,12.20
2006,09,27,05,00,12.20
2006,09,27,05,01,12.20
2006,09,27,05,02,12.20
2006,09,27,05,03,12.10
2006,09,27,05,04,12.10
2006,09,27,05,05,12.10
2006,09,27,05,06,12.10
2006,09,27,05,07,12.10
2006,09,27,05,08,12.10
2006,09,27,05,09,12.10
2006,09,27,05,10,12.00
2006,09,27,05,11,12.10
2006,09,27,05,12,12.10
2006,09,27,05,13,12.10
2006,09,27,05,14,12.10
2006,09,27,05,15,12.20
2006,09,27,05,16,12.20
2006,09,27,05,17,12.20
2006,09,27,05,18,12.30
2006,09,27,05,19,12.30
2006,09,27,05,20,12.30
2006,09,27,05,21,12.30
2006,09,27,05,22,12.30
2006,09,27,05,23,12.30
2006,09,27,05,24,12.40
2006,09,27,05,25,12.40
2006,09,27,05,26,12.50
2006,09,27,05,27,12.50
2006,09,27,05,28,12.50
2006,09,27,05,29,12.50
2006,09,27,05,30,12.70
2006,09,27,05,31,12.70
2006,09,27,05,32,12.70
2006,09,27,05,33,12.70
2006,09,27,05,34,12.60
2006,09,27,05,35,12.60
2006,09,27,05,36,12.60
2006,09,27,05,37,12.70
2006,09,27,05,38,12.70
2006,09,27,05,39,12.70
2006,09,27,05,40,12.70
2006,09,27,05,41,12.70
2006,09,27,05,42,12.70
2006,09,27,05,43,12.70
2006,09,27,05,44,12.70
2006,09,27,05,45,12.70
2006,09,27,05,46,12.70
2006,09,27,05,47,12.70
2006,09,27,05,48,12.60
2006,09,27,05,49,12.60
2006,09,27,05,50,12.60
2006,09,27,05,51,12.60
2006,09,27,05,52,12.60
2006,09,27,05,53,12.50
2006,09,27,05,54,12.50
2006,09,27,05,55,12.50
2006,09,27,05,56,12.40
2006,09,27,05,57,12.40
2006,09,27,05,58,12.40
2006,09,27,05,59,12.40
2006,09,27,06,00,12.40
2006,09,27,06,01,12.40
2006,09,27,06,02,12.40
2006,09,27,06,03,12.40
2006,09,27,06,04,12.40
2006,09,27,06,05,12.40
2006,09,27,06,06,12.40
2006,09,27,06,07,12.50
2006,09,27,06,08,12.50
2006,09,27,06,09,12.50
2006,09,27,06,10,12.50
2006,09,27,06,11,12.50
2006,09,27,06,12,12.50
2006,09,27,06,13,12.40
2006,09,27,06,14,12.50
2006,09,27,06,15,12.50
2006,09,27,06,16,12.50
2006,09,27,06,17,12.50
2006,09,27,06,18,12.50
2006,09,27,06,19,12.40
2006,09,27,06,20,12.40
2006,09,27,06,21,12.40
2006,09,27,06,22,12.40
2006,09,27,06,23,12.40
2006,09,27,06,24,12.40
2006,09,27,06,25,12.40
2006,09,27,06,26,12.40
2006,09,27,06,27,12.40
2006,09,27,06,28,12.40
2006,09,27,06,29,12.40
2006,09,27,06,30,12.40
2006,09,27,06,31,12.40
2006,09,27,06,32,12.40
2006,09,27,06,33,12.40
2006,09,27,06,34,12.40
2006,09,27,06,35,12.40
2006,09,27,06,36,12.40
2006,09,27,06,37,12.40
2006,09,27,06,38,12.40
2006,09,27,06,39,12.40
2006,09,27,06,40,12.40
2006,09,27,06,41,12.40
2006,09,27,06,42,12.40
2006,09,27,06,43,12.40
2006,09,27,06,44,12.50
2006,09,27,06,45,12.50
2006,09,27,06,46,12.50
2006,09,27,06,47,12.50
2006,09,27,06,48,12.50
2006,09,27,06,49,12.50
2006,09,27,06,50,12.50
2006,09,27,06,51,12.50
2006,09,27,06,52,12.50
2006,09,27,06,53,12.60
2006,09,27,06,54,12.60
2006,09,27,06,55,12.60
2006,09,27,06,56,12.60
2006,09,27,06,57,12.60
2006,09,27,06,58,12.60
2006,09,27,06,59,12.60
2006,09,27,07,00,12.60
2006,09,27,07,01,12.60
2006,09,27,07,02,12.50
2006,09,27,07,03,12.50
2006,09,27,07,04,12.50
2006,09,27,07,05,12.50
2006,09,27,07,06,12.40
2006,09,27,07,07,12.40
2006,09,27,07,08,12.40
2006,09,27,07,09,12.40
2006,09,27,07,10,12.40
2006,09,27,07,11,12.50
2006,09,27,07,12,12.50
2006,09,27,07,13,12.60
2006,09,27,07,14,12.70
2006,09,27,07,15,12.70
2006,09,27,07,16,12.80
2006,09,27,07,17,12.80
2006,09,27,07,18,12.80
2006,09,27,07,19,12.80
2006,09,27,07,20,12.90
2006,09,27,07,21,12.90
2006,09,27,07,22,12.90
2006,09,27,07,23,12.90
2006,09,27,07,24,13.00
2006,09,27,07,25,13.00
2006,09,27,07,26,13.00
2006,09,27,07,27,13.00
2006,09,27,07,28,13.00
2006,09,27,07,29,13.00
2006,09,27,07,30,12.90
2006,09,27,07,31,12.90
2006,09,27,07,32,13.00
2006,09,27,07,33,13.00
2006,09,27,07,34,13.00
2006,09,27,07,35,13.00
2006,09,27,07,36,13.00
2006,09,27,07,37,13.00
2006,09,27,07,38,13.10
2006,09,27,07,39,13.10
2006,09,27,07,40,13.10
2006,09,27,07,41,13.10
2006,09,27,07,42,13.10
2006,09,27,07,43,13.20
2006,09,27,07,44,13.20
2006,09,27,07,45,13.20
2006,09,27,07,46,13.30
2006,09,27,07,47,13.30
2006,09,27,07,48,13.30
2006,09,27,07,49,13.30
2006,09,27,07,50,13.40
2006,09,27,07,51,13.40
2006,09,27,07,52,13.40
2006,09,27,07,53,13.50
2006,09,27,07,54,13.60
2006,09,27,07,55,13.60
2006,09,27,07,56,13.70
2006,09,27,07,57,13.70
2006,09,27,07,58,13.70
2006,09,27,07,59,13.80
2006,09,27,08,00,13.90
2006,09,27,08,01,13.90
2006,09,27,08,02,14.00
2006,09,27,08,03,14.00
2006,09,27,08,04,14.10
2006,09,27,08,05,14.20
2006,09,27,08,06,14.20
2006,09,27,08,07,14.30
2006,09,27,08,08,14.40
2006,09,27,08,09,14.40
2006,09,27,08,10,14.50
2006,09,27,08,11,14.50
2006,09,27,08,12,14.60
2006,09,27,08,13,14.70
2006,09,27,08,14,14.70
2006,09,27,08,15,14.80
2006,09,27,08,16,14.80
2006,09,27,08,17,14.90
2006,09,27,08,18,14.90
2006,09,27,08,19,15.00
2006,09,27,08,20,15.00
2006,09,27,08,21,15.10
2006,09,27,08,22,15.20
2006,09,27,08,23,15.20
2006,09,27,08,24,15.30
2006,09,27,08,25,15.30
2006,09,27,08,26,15.30
2006,09,27,08,27,15.40
2006,09,27,08,28,15.40
2006,09,27,08,29,15.50
2006,09,27,08,30,15.50
2006,09,27,08,31,15.60
2006,09,27,08,32,15.60
2006,09,27,08,33,15.70
2006,09,27,08,34,15.80
2006,09,27,08,35,15.80
2006,09,27,08,36,15.80
2006,09,27,08,37,15.90
2006,09,27,08,38,16.00
2006,09,27,08,39,16.10
2006,09,27,08,40,16.10
2006,09,27,08,41,16.10
2006,09,27,08,42,16.20
2006,09,27,08,43,16.20
2006,09,27,08,44,16.30
2006,09,27,08,45,16.40
2006,09,27,08,46,16.40
2006,09,27,08,47,16.50
2006,09,27,08,48,16.60
2006,09,27,08,49,16.70
2006,09,27,08,50,16.70
2006,09,27,08,51,16.70
2006,09,27,08,52,16.80
2006,09,27,08,53,16.80
2006,09,27,08,54,16.90
2006,09,27,08,55,16.90
2006,09,27,08,56,16.90
2006,09,27,08,57,17.00
2006,09,27,08,58,17.00
2006,09,27,08,59,17.10
2006,09,27,09,00,17.10
2006,09,27,09,01,17.20
2006,09,27,09,02,17.20
2006,09,27,09,03,17.30
2006,09,27,09,04,17.30
2006,09,27,09,05,17.30
2006,09,27,09,06,17.30
2006,09,27,09,07,17.30
2006,09,27,09,08,17.30
2006,09,27,09,09,17.30
2006,09,27,09,10,17.40
2006,09,27,09,11,17.40
2006,09,27,09,12,17.40
2006,09,27,09,13,17.40
2006,09,27,09,14,17.50
2006,09,27,09,15,17.50
2006,09,27,09,16,17.50
2006,09,27,09,17,17.50
2006,09,27,09,18,17.60
2006,09,27,09,19,17.60
2006,09,27,09,20,17.60
2006,09,27,09,21,17.70
2006,09,27,09,22,17.70
2006,09,27,09,23,17.70
2006,09,27,09,24,17.80
2006,09,27,09,25,17.90
2006,09,27,09,26,17.90
2006,09,27,09,27,17.90
2006,09,27,09,28,17.90
2006,09,27,09,29,18.00
2006,09,27,09,30,18.10
2006,09,27,09,31,18.20
2006,09,27,09,32,18.20
2006,09,27,09,33,18.20
2006,09,27,09,34,18.20
2006,09,27,09,35,18.30
2006,09,27,09,36,18.30
2006,09,27,09,37,18.30
2006,09,27,09,38,18.30
2006,09,27,09,39,18.30
2006,09,27,09,40,18.20
2006,09,27,09,41,18.30
2006,09,27,09,42,18.30
2006,09,27,09,43,18.30
2006,09,27,09,44,18.30
2006,09,27,09,45,18.40
2006,09,27,09,46,18.40
2006,09,27,09,47,18.40
2006,09,27,09,48,18.30
2006,09,27,09,49,18.30
2006,09,27,09,50,18.40
2006,09,27,09,51,18.40
2006,09,27,09,52,18.50
2006,09,27,09,53,18.50
2006,09,27,09,54,18.50
2006,09,27,09,55,18.50
2006,09,27,09,56,18.50
2006,09,27,09,57,18.50
2006,09,27,09,58,18.50
2006,09,27,09,59,18.50
2006,09,27,10,00,18.60
2006,09,27,10,01,18.60
2006,09,27,10,02,18.60
2006,09,27,10,03,18.70
2006,09,27,10,04,18.70
2006,09,27,10,05,18.80
2006,09,27,10,06,18.90
2006,09,27,10,07,18.90
2006,09,27,10,08,18.90
2006,09,27,10,09,18.90
2006,09,27,10,10,19.00
2006,09,27,10,11,19.10
2006,09,27,10,12,19.10
2006,09,27,10,13,19.10
2006,09,27,10,14,19.20
2006,09,27,10,15,19.20
2006,09,27,10,16,19.30
2006,09,27,10,17,19.30
2006,09,27,10,18,19.30
2006,09,27,10,19,19.30
2006,09,27,10,20,19.30
2006,09,27,10,21,19.20
2006,09,27,10,22,19.10
2006,09,27,10,23,19.10
2006,09,27,10,24,19.10
2006,09,27,10,25,19.10
2006,09,27,10,26,19.10
2006,09,27,10,27,19.10
2006,09,27,10,28,19.10
2006,09,27,10,29,19.10
2006,09,27,10,30,19.10
2006,09,27,10,31,19.10
2006,09,27,10,32,19.10
2006,09,27,10,33,19.20
2006,09,27,10,34,19.20
2006,09,27,10,35,19.20
2006,09,27,10,36,19.30
2006,09,27,10,37,19.30
2006,09,27,10,38,19.30
2006,09,27,10,39,19.30
2006,09,27,10,40,19.30
2006,09,27,10,41,19.30
2006,09,27,10,42,19.40
2006,09,27,10,43,19.40
2006,09,27,10,44,19.50
2006,09,27,10,45,19.50
2006,09,27,10,46,19.60
2006,09,27,10,47,19.60
2006,09,27,10,48,19.60
2006,09,27,10,49,19.60
2006,09,27,10,50,19.70
2006,09,27,10,51,19.70
2006,09,27,10,52,19.80
2006,09,27,10,53,19.90
2006,09,27,10,54,19.90
2006,09,27,10,55,20.00
2006,09,27,10,56,20.10
2006,09,27,10,57,20.20
2006,09,27,10,58,20.30
2006,09,27,10,59,20.30
2006,09,27,11,00,20.30
2006,09,27,11,01,20.40
2006,09,27,11,02,20.40
2006,09,27,11,03,20.40
2006,09,27,11,04,20.30
2006,09,27,11,05,20.30
2006,09,27,11,06,20.30
2006,09,27,11,07,20.30
2006,09,27,11,08,20.30
2006,09,27,11,09,20.30
2006,09,27,11,10,20.40
2006,09,27,11,11,20.50
2006,09,27,11,12,20.50
2006,09,27,11,13,20.40
2006,09,27,11,14,20.40
2006,09,27,11,15,20.40
2006,09,27,11,16,20.40
2006,09,27,11,17,20.40
2006,09,27,11,18,20.40
2006,09,27,11,19,20.40
2006,09,27,11,20,20.50
2006,09,27,11,21,20.50
2006,09,27,11,22,20.50
2006,09,27,11,23,20.60
2006,09,27,11,24,20.70
2006,09,27,11,25,20.80
2006,09,27,11,26,20.90
2006,09,27,11,27,20.90
2006,09,27,11,28,20.90
2006,09,27,11,29,20.90
2006,09,27,11,30,20.90
2006,09,27,11,31,20.90
2006,09,27,11,32,20.80
2006,09,27,11,33,20.80
2006,09,27,11,34,20.90
2006,09,27,11,35,20.90
2006,09,27,11,36,20.90
2006,09,27,11,37,21.00
2006,09,27,11,38,20.90
2006,09,27,11,39,20.80
2006,09,27,11,40,20.80
2006,09,27,11,41,20.70
2006,09,27,11,42,20.80
2006,09,27,11,43,20.90
2006,09,27,11,44,21.00
2006,09,27,11,45,21.00
2006,09,27,11,46,21.10
2006,09,27,11,47,21.20
2006,09,27,11,48,21.30
2006,09,27,11,49,21.30
2006,09,27,11,50,21.30
2006,09,27,11,51,21.30
2006,09,27,11,52,21.40
2006,09,27,11,53,21.40
2006,09,27,11,54,21.40
2006,09,27,11,55,21.40
2006,09,27,11,56,21.40
2006,09,27,11,57,21.40
2006,09,27,11,58,21.40
2006,09,27,11,59,21.30
2006,09,27,12,00,21.30
2006,09,27,12,01,21.30
2006,09,27,12,02,21.30
2006,09,27,12,03,21.20
2006,09,27,12,04,21.30
2006,09,27,12,05,21.30
2006,09,27,12,06,21.40
2006,09,27,12,07,21.40
2006,09,27,12,08,21.40
2006,09,27,12,09,21.50
2006,09,27,12,10,21.40
2006,09,27,12,11,21.40
2006,09,27,12,12,21.40
2006,09,27,12,13,21.40
2006,09,27,12,14,21.40
2006,09,27,12,15,21.40
2006,09,27,12,16,21.50
2006,09,27,12,17,21.40
2006,09,27,12,18,21.40
2006,09,27,12,19,21.40
2006,09,27,12,20,21.40
2006,09,27,12,21,21.50
2006,09,27,12,22,21.60
2006,09,27,12,23,21.60
2006,09,27,12,24,21.60
2006,09,27,12,25,21.50
2006,09,27,12,26,21.40
2006,09,27,12,27,21.40
2006,09,27,12,28,21.40
2006,09,27,12,29,21.50
2006,09,27,12,30,21.60
2006,09,27,12,31,21.60
2006,09,27,12,32,21.70
2006,09,27,12,33,21.80
2006,09,27,12,34,21.90
2006,09,27,12,35,21.90
2006,09,27,12,36,22.00
2006,09,27,12,37,22.10
2006,09,27,12,38,22.10
2006,09,27,12,39,22.00
2006,09,27,12,40,22.00
2006,09,27,12,41,22.10
2006,09,27,12,42,22.10
2006,09,27,12,43,22.00
2006,09,27,12,44,21.90
2006,09,27,12,45,21.90
2006,09,27,12,46,22.00
2006,09,27,12,47,22.00
2006,09,27,12,48,22.10
2006,09,27,12,49,22.00
2006,09,27,12,50,22.00
2006,09,27,12,51,22.00
2006,09,27,12,52,22.00
2006,09,27,12,53,22.00
2006,09,27,12,54,22.00
2006,09,27,12,55,22.00
2006,09,27,12,56,22.00
2006,09,27,12,57,22.00
2006,09,27,12,58,22.00
2006,09,27,12,59,22.00
2006,09,27,13,00,21.90
2006,09,27,13,01,22.00
2006,09,27,13,02,22.00
2006,09,27,13,03,22.00
2006,09,27,13,04,22.10
2006,09,27,13,05,22.10
2006,09,27,13,06,22.20
2006,09,27,13,07,22.30
2006,09,27,13,08,22.40
2006,09,27,13,09,22.40
2006,09,27,13,10,22.40
2006,09,27,13,11,22.30
2006,09,27,13,12,22.20
2006,09,27,13,13,22.20
2006,09,27,13,14,22.10
2006,09,27,13,15,22.10
2006,09,27,13,16,22.10
2006,09,27,13,17,22.10
2006,09,27,13,18,22.10
2006,09,27,13,19,22.10
2006,09,27,13,20,22.20
2006,09,27,13,21,22.30
2006,09,27,13,22,22.40
2006,09,27,13,23,22.50
2006,09,27,13,24,22.50
2006,09,27,13,25,22.60
2006,09,27,13,26,22.60
2006,09,27,13,27,22.70
2006,09,27,13,28,22.60
2006,09,27,13,29,22.60
2006,09,27,13,30,22.60
2006,09,27,13,31,22.60
2006,09,27,13,32,22.60
2006,09,27,13,33,22.50
2006,09,27,13,34,22.60
2006,09,27,13,35,22.60
2006,09,27,13,36,22.60
2006,09,27,13,37,22.60
2006,09,27,13,38,22.60
2006,09,27,13,39,22.70
2006,09,27,13,40,22.80
2006,09,27,13,41,22.80
2006,09,27,13,42,22.90
2006,09,27,13,43,22.90
2006,09,27,13,44,22.90
2006,09,27,13,45,23.00
2006,09,27,13,46,23.00
2006,09,27,13,47,22.90
2006,09,27,13,48,22.90
2006,09,27,13,49,22.80
2006,09,27,13,50,22.70
2006,09,27,13,51,22.70
2006,09,27,13,52,22.70
2006,09,27,13,53,22.70
2006,09,27,13,54,22.80
2006,09,27,13,55,22.80
2006,09,27,13,56,22.80
2006,09,27,13,57,22.90
2006,09,27,13,58,22.90
2006,09,27,13,59,22.90
2006,09,27,14,00,22.90
2006,09,27,14,01,23.10
2006,09,27,14,02,23.10
2006,09,27,14,03,23.10
2006,09,27,14,04,23.20
2006,09,27,14,05,23.20
2006,09,27,14,06,23.20
2006,09,27,14,07,23.20
2006,09,27,14,08,23.10
2006,09,27,14,09,23.10
2006,09,27,14,10,23.10
2006,09,27,14,11,23.10
2006,09,27,14,12,23.20
2006,09,27,14,13,23.20
2006,09,27,14,14,23.20
2006,09,27,14,15,23.20
2006,09,27,14,16,23.10
2006,09,27,14,17,22.90
2006,09,27,14,18,22.90
2006,09,27,14,19,22.90
2006,09,27,14,20,22.90
2006,09,27,14,21,22.90
2006,09,27,14,22,22.90
2006,09,27,14,23,22.90
2006,09,27,14,24,22.80
2006,09,27,14,25,22.80
2006,09,27,14,26,22.80
2006,09,27,14,27,22.90
2006,09,27,14,28,22.90
2006,09,27,14,29,22.90
2006,09,27,14,30,22.90
2006,09,27,14,31,22.90
2006,09,27,14,32,22.90
2006,09,27,14,33,22.90
2006,09,27,14,34,22.90
2006,09,27,14,35,22.90
2006,09,27,14,36,22.90
2006,09,27,14,37,22.90
2006,09,27,14,38,22.90
2006,09,27,14,39,22.90
2006,09,27,14,40,22.90
2006,09,27,14,41,22.90
2006,09,27,14,42,23.20
2006,09,27,14,43,23.30
2006,09,27,14,44,23.20
2006,09,27,14,45,23.20
2006,09,27,14,46,23.10
2006,09,27,14,47,23.10
2006,09,27,14,48,23.10
2006,09,27,14,49,23.20
2006,09,27,14,50,23.30
2006,09,27,14,51,23.30
2006,09,27,14,52,23.30
2006,09,27,14,53,23.30
2006,09,27,14,54,23.30
2006,09,27,14,55,23.30
2006,09,27,14,56,23.30
2006,09,27,14,57,23.40
2006,09,27,14,58,23.50
2006,09,27,14,59,23.60
2006,09,27,15,00,23.60
2006,09,27,15,01,23.60
2006,09,27,15,02,23.70
2006,09,27,15,03,23.80
2006,09,27,15,04,23.90
2006,09,27,15,05,24.00
2006,09,27,15,06,24.10
2006,09,27,15,07,24.10
2006,09,27,15,08,24.30
2006,09,27,15,09,24.50
2006,09,27,15,10,24.50
2006,09,27,15,11,24.50
2006,09,27,15,12,24.60
2006,09,27,15,13,24.60
2006,09,27,15,14,24.60
2006,09,27,15,15,24.50
2006,09,27,15,16,24.50
2006,09,27,15,17,24.50
2006,09,27,15,18,24.40
2006,09,27,15,19,24.20
2006,09,27,15,20,24.10
2006,09,27,15,21,24.10
2006,09,27,15,22,23.90
2006,09,27,15,23,23.80
2006,09,27,15,24,23.70
2006,09,27,15,25,23.70
2006,09,27,15,26,23.70
2006,09,27,15,27,23.70
2006,09,27,15,28,23.70
2006,09,27,15,29,23.70
2006,09,27,15,30,23.70
2006,09,27,15,31,23.70
2006,09,27,15,32,23.50
2006,09,27,15,33,23.40
2006,09,27,15,34,23.30
2006,09,27,15,35,23.20
2006,09,27,15,36,23.00
2006,09,27,15,37,22.90
2006,09,27,15,38,22.90
2006,09,27,15,39,22.90
2006,09,27,15,40,23.00
2006,09,27,15,41,23.10
2006,09,27,15,42,23.10
2006,09,27,15,43,23.10
2006,09,27,15,44,23.00
2006,09,27,15,45,22.90
2006,09,27,15,46,22.90
2006,09,27,15,47,22.90
2006,09,27,15,48,22.80
2006,09,27,15,49,22.80
2006,09,27,15,50,22.70
2006,09,27,15,51,22.70
2006,09,27,15,52,22.70
2006,09,27,15,53,22.70
2006,09,27,15,54,22.80
2006,09,27,15,55,22.80
2006,09,27,15,56,22.80
2006,09,27,15,57,22.80
2006,09,27,15,58,22.90
2006,09,27,15,59,22.90
2006,09,27,16,00,22.90
2006,09,27,16,01,22.90
2006,09,27,16,02,22.90
2006,09,27,16,03,22.80
2006,09,27,16,04,22.80
2006,09,27,16,05,22.70
2006,09,27,16,06,22.70
2006,09,27,16,07,22.60
2006,09,27,16,08,22.60
2006,09,27,16,09,22.60
2006,09,27,16,10,22.60
2006,09,27,16,11,22.70
2006,09,27,16,12,22.90
2006,09,27,16,13,22.90
2006,09,27,16,14,22.90
2006,09,27,16,15,22.90
2006,09,27,16,16,23.10
2006,09,27,16,17,23.10
2006,09,27,16,18,23.10
2006,09,27,16,19,23.00
2006,09,27,16,20,22.90
2006,09,27,16,21,23.00
2006,09,27,16,22,22.90
2006,09,27,16,23,22.90
2006,09,27,16,24,22.90
2006,09,27,16,25,22.90
2006,09,27,16,26,22.90
2006,09,27,16,27,22.90
2006,09,27,16,28,22.90
2006,09,27,16,29,22.90
2006,09,27,16,30,22.90
2006,09,27,16,31,22.90
2006,09,27,16,32,22.90
2006,09,27,16,33,23.00
2006,09,27,16,34,23.10
2006,09,27,16,35,23.10
2006,09,27,16,36,23.20
2006,09,27,16,37,23.20
2006,09,27,16,38,23.30
2006,09,27,16,39,23.30
2006,09,27,16,40,23.40
2006,09,27,16,41,23.40
2006,09,27,16,42,23.40
2006,09,27,16,43,23.40
2006,09,27,16,44,23.40
2006,09,27,16,45,23.30
2006,09,27,16,46,23.30
2006,09,27,16,47,23.20
2006,09,27,16,48,23.00
2006,09,27,16,49,22.90
2006,09,27,16,50,22.90
2006,09,27,16,51,23.00
2006,09,27,16,52,23.10
2006,09,27,16,53,23.10
2006,09,27,16,54,22.90
2006,09,27,16,55,22.90
2006,09,27,16,56,22.90
2006,09,27,16,57,22.90
2006,09,27,16,58,22.90
2006,09,27,16,59,22.90
2006,09,27,17,00,22.90
2006,09,27,17,01,23.10
2006,09,27,17,02,23.10
2006,09,27,17,03,23.20
2006,09,27,17,04,23.30
2006,09,27,17,05,23.30
2006,09,27,17,06,23.30
2006,09,27,17,07,23.30
2006,09,27,17,08,23.30
2006,09,27,17,09,23.30
2006,09,27,17,10,23.30
2006,09,27,17,11,23.30
2006,09,27,17,12,23.30
2006,09,27,17,13,23.30
2006,09,27,17,14,23.30
2006,09,27,17,15,23.30
2006,09,27,17,16,23.30
2006,09,27,17,17,23.40
2006,09,27,17,18,23.40
2006,09,27,17,19,23.40